Date String (YYYY-MM-DD hh:mm:ss) UTC,Instrument flags,Ambient pressure (hPa),Sample flow (lpm),Bypass flow (lpm),Sample temperature (°C),Ambient temperature (°C),ASC tube jacket temperature (°C),LED temperature (°C),Box temperature (°C),Sample RH (%),Span deviation,Mass concentration (μg/m³),Mass concentration (μg/m³),Mass concentration (μg/m³)
DateTimeUTC,F1_M11,P_M11,Q1_M11,Q2_M11,T1_M11,T2_M11,T3_M11,T4_M11,T5_M11,U1_M11,ZSPAN_M11,X0_M11,X2_M11,X1_M11
2022-04-07 02:00:00,,0830.7,5.01,0.00,22.2,21.4,00.0,31.2,24.0,05.8,0000.0,0003.99,0001.33,0000.56
2022-04-07 02:01:00,,0830.7,5.01,0.00,22.2,21.4,00.0,31.2,24.0,05.8,0000.0,0003.67,0001.31,0000.56
2022-04-07 02:02:00,,0830.7,5.00,0.00,22.2,21.4,00.0,31.2,24.0,05.8,0000.0,0003.96,0001.34,0000.56
2022-04-07 02:03:00,,0830.8,4.99,0.00,22.2,21.4,00.0,31.2,24.0,05.8,0000.0,0005.04,0001.32,0000.55
2022-04-07 02:04:00,,0830.8,5.00,0.00,22.2,21.4,00.0,31.2,24.0,05.8,0000.0,0005.35,0001.30,0000.55
2022-04-07 02:05:00,,0830.9,5.00,0.00,22.2,21.4,00.0,31.2,24.0,05.8,0000.0,0005.70,0001.30,0000.53
2022-04-07 02:06:00,,0830.9,4.99,0.00,22.2,21.4,00.0,31.2,24.0,05.8,0000.0,0006.82,0001.33,0000.53
2022-04-07 02:07:00,,0830.9,5.01,0.00,22.2,21.4,00.0,31.2,24.1,05.8,0000.0,0007.11,0001.37,0000.54
2022-04-07 02:08:00,,0830.9,5.00,0.00,22.2,21.4,00.0,31.2,24.1,05.8,0000.0,0008.29,0001.46,0000.54
2022-04-07 02:09:00,,0830.9,5.00,0.00,22.2,21.4,00.0,31.2,24.0,05.8,0000.0,0009.19,0001.51,0000.55
2022-04-07 02:10:00,,0830.9,5.00,0.00,22.2,21.4,00.0,31.2,24.0,05.8,0000.0,0009.93,0001.52,0000.54
2022-04-07 02:11:00,,0830.9,4.98,0.00,22.2,21.4,00.0,31.2,24.1,05.8,0000.0,0010.09,0001.53,0000.54
2022-04-07 02:12:00,,0831.0,5.00,0.00,22.2,21.4,00.0,31.2,24.1,05.8,0000.0,0010.62,0001.59,0000.55
2022-04-07 02:13:00,,0830.9,5.00,0.00,22.2,21.4,00.0,31.2,24.0,05.9,0000.0,0012.02,0001.62,0000.56
2022-04-07 02:14:00,,0830.9,5.01,0.00,22.2,21.4,00.0,31.2,24.0,05.9,0000.0,0012.01,0001.69,0000.55
2022-04-07 02:15:00,,0830.9,5.01,0.00,22.2,21.4,00.0,31.2,24.0,06.0,0000.0,0011.52,0001.63,0000.55
2022-04-07 02:16:00,,0831.0,5.00,0.00,22.2,21.4,00.0,31.2,24.0,06.0,0000.0,0011.26,0001.63,0000.57
2022-04-07 02:17:00,,0830.9,4.99,0.00,22.2,21.4,00.0,31.2,24.0,06.0,0000.0,0010.75,0001.64,0000.57
2022-04-07 02:18:00,,0831.0,5.01,0.00,22.2,21.4,00.0,31.2,24.0,06.1,0000.0,0011.23,0001.61,0000.56
2022-04-07 02:19:00,,0831.0,5.00,0.00,22.2,21.4,00.0,31.2,24.0,06.1,0000.0,0010.28,0001.57,0000.56
2022-04-07 02:20:00,,0831.0,5.00,0.00,22.2,21.4,00.0,31.1,24.0,06.1,0000.0,0009.49,0001.50,0000.55
2022-04-07 02:21:00,,0831.0,4.99,0.00,22.2,21.4,00.0,31.1,24.0,06.2,0000.0,0009.42,0001.45,0000.55
2022-04-07 02:22:00,,0831.0,5.01,0.00,22.2,21.4,00.0,31.1,24.0,06.2,0000.0,0009.60,0001.46,0000.55
2022-04-07 02:23:00,,0831.0,4.99,0.00,22.2,21.4,00.0,31.1,24.0,06.1,0000.0,0009.13,0001.51,0000.55
2022-04-07 02:24:00,,0831.0,5.00,0.00,22.2,21.4,00.0,31.1,24.0,06.2,0000.0,0007.75,0001.49,0000.54
2022-04-07 02:25:00,,0831.0,5.01,0.00,22.2,21.4,00.0,31.1,24.0,06.2,0000.0,0006.85,0001.40,0000.54
2022-04-07 02:26:00,,0831.0,5.00,0.00,22.2,21.4,00.0,31.1,24.0,06.2,0000.0,0007.01,0001.45,0000.55
2022-04-07 02:27:00,,0831.1,4.98,0.00,22.2,21.4,00.0,31.1,24.0,06.2,0000.0,0007.82,0001.40,0000.55
2022-04-07 02:28:00,,0831.1,5.01,0.00,22.2,21.4,00.0,31.1,24.0,06.2,0000.0,0009.07,0001.42,0000.56
2022-04-07 02:29:00,,0831.1,5.00,0.00,22.2,21.4,00.0,31.1,24.0,06.2,0000.0,0009.61,0001.49,0000.57
2022-04-07 02:30:00,,0831.2,5.01,0.00,22.2,21.4,00.0,31.2,24.0,06.2,0000.0,0009.45,0001.47,0000.57
2022-04-07 02:31:00,,0831.2,5.01,0.00,22.2,21.4,00.0,31.2,24.0,06.2,0000.0,0009.87,0001.50,0000.58
2022-04-07 02:32:00,,0831.2,5.00,0.00,22.2,21.4,00.0,31.1,24.0,06.2,0000.0,0009.37,0001.62,0000.59
2022-04-07 02:33:00,,0831.2,5.00,0.00,22.2,21.4,00.0,31.1,24.0,06.2,0000.0,0009.00,0001.57,0000.58
2022-04-07 02:34:00,,0831.1,4.99,0.00,22.2,21.4,00.0,31.1,24.0,06.2,0000.0,0008.96,0001.53,0000.59
2022-04-07 02:35:00,,0831.1,5.00,0.00,22.2,21.4,00.0,31.1,24.0,06.3,0000.0,0008.96,0001.52,0000.58
2022-04-07 02:36:00,,0831.2,5.00,0.00,22.2,21.3,00.0,31.1,24.0,06.3,0000.0,0009.04,0001.57,0000.58
2022-04-07 02:37:00,,0831.2,5.01,0.00,22.2,21.3,00.0,31.1,24.0,06.4,0000.0,0009.25,0001.62,0000.58
2022-04-07 02:38:00,,0831.2,4.99,0.00,22.1,21.3,00.0,31.1,23.9,06.4,0000.0,0008.55,0001.70,0000.57
2022-04-07 02:39:00,,0831.2,5.00,0.00,22.1,21.3,00.0,31.1,23.9,06.4,0000.0,0007.17,0001.74,0000.56
2022-04-07 02:40:00,,0831.1,5.00,0.00,22.1,21.3,00.0,31.1,23.9,06.3,0000.0,0005.62,0001.71,0000.54
2022-04-07 02:41:00,,0831.2,5.01,0.00,22.1,21.3,00.0,31.1,23.9,06.2,0000.0,0005.62,0001.72,0000.54
2022-04-07 02:42:00,,0831.1,5.01,0.00,22.1,21.3,00.0,31.1,23.9,06.3,0000.0,0005.20,0001.75,0000.54
2022-04-07 02:43:00,,0831.1,4.98,0.00,22.1,21.2,00.0,31.1,23.9,06.3,0000.0,0005.91,0001.73,0000.55
2022-04-07 02:44:00,,0831.2,5.00,0.00,22.1,21.2,00.0,31.1,23.8,06.4,0000.0,0005.95,0001.75,0000.55
2022-04-07 02:45:00,,0831.2,5.00,0.00,22.0,21.2,00.0,31.1,23.8,06.5,0000.0,0005.97,0001.76,0000.55
2022-04-07 02:46:00,,0831.1,5.00,0.00,22.0,21.2,00.0,31.1,23.8,06.5,0000.0,0005.94,0001.76,0000.56
2022-04-07 02:47:00,,0831.1,5.00,0.00,22.0,21.2,00.0,31.1,23.7,06.5,0000.0,0005.82,0001.73,0000.55
2022-04-07 02:48:00,,0831.2,4.98,0.00,22.0,21.1,00.0,31.0,23.7,06.6,0000.0,0006.97,0001.67,0000.56
2022-04-07 02:49:00,,0831.2,5.01,0.00,21.9,21.1,00.0,31.0,23.7,06.5,0000.0,0007.05,0001.67,0000.57
2022-04-07 02:50:00,,0831.2,5.00,0.00,21.9,21.1,00.0,31.0,23.7,06.6,0000.0,0007.31,0001.68,0000.57
2022-04-07 02:51:00,,0831.2,5.00,0.00,21.9,21.1,00.0,31.0,23.7,06.6,0000.0,0007.40,0001.72,0000.57
2022-04-07 02:52:00,,0831.1,5.00,0.00,21.9,21.0,00.0,31.0,23.6,06.6,0000.0,0007.47,0001.80,0000.59
2022-04-07 02:53:00,,0831.2,4.99,0.00,21.9,21.0,00.0,31.0,23.6,06.6,0000.0,0007.53,0001.77,0000.59
2022-04-07 02:54:00,,0831.2,4.98,0.00,21.8,21.0,00.0,31.0,23.5,06.7,0000.0,0007.35,0001.75,0000.59
2022-04-07 02:55:00,,0831.2,5.01,0.00,21.8,21.0,00.0,30.9,23.5,06.7,0000.0,0007.56,0001.72,0000.58
2022-04-07 02:56:00,,0831.2,5.01,0.00,21.8,20.9,00.0,30.9,23.5,06.8,0000.0,0007.60,0001.74,0000.57
2022-04-07 02:57:00,,0831.2,5.00,0.00,21.8,20.9,00.0,30.9,23.5,06.8,0000.0,0007.55,0001.72,0000.57
2022-04-07 02:58:00,,0831.2,5.00,0.00,21.8,20.9,00.0,30.9,23.4,06.9,0000.0,0007.52,0001.68,0000.56
2022-04-07 02:59:00,,0831.2,5.00,0.00,21.7,20.9,00.0,30.9,23.4,07.0,0000.0,0006.27,0001.70,0000.55
